User: anonymous   Login
Location: Boiro
(42.6475°N, 8.8834°W)
Time: 18:28:08
(UTC+01:00)
Language:

A-11 Canister half - Orbit

View from above orbital plane
View from above orbital plane
View from above satellite
View from above satellite

Ground track
Ground track

The orbit data is extracted from the following two-line orbital elements,

1 00053U 60009E   21333.68801317 -.00000154  00000-0 -68294-3 0  9993
2 00053  47.2780  63.8090 0100446 207.6842 151.8575 12.17266147733156
Epoch (UTC): 29 November 2021 16:30:44
Eccentricity: 0.0100446
inclination: 47.2780°
perigee height: 1524 km
apogee height: 1684 km
right ascension of ascending node: 63.8090°
argument of perigee: 207.6842°
revolutions per day: 12.17266147
mean anomaly at epoch: 151.8575°
orbit number at epoch: 73315

The dashed part of the orbit path shows where the satellite is in the earth's shadow,  

DLR